IBE3131 LECO-LPMA

Flight info

Callsign IBE3131
Flight time N/A
Altitude 33000
Route FORNO DCT FINAM DCT BEDAL DCT ASPOR DCT VASIP DCT PRT/N0428F230 UP600 FTM UN872 ESP UN975 RAKUN
Aircraft A320/M-SDE3FGHIRWY/LB1

Departure

Time 2026-04-16 12:37
Airport A Coruña Airport (LECO)

Arrival

Time N/A
Airport Cristiano Ronaldo International Airport (LPMA)
Time Latitude Longitude Altitude Speed Heading
2026-04-16 12:23 43.30165 -8.38081 341 ft 0 kts 327°
2026-04-16 12:29 43.30159 -8.38077 336 ft 2 kts 322°
2026-04-16 12:30 43.30144 -8.38062 336 ft 3 kts 330°
2026-04-16 12:30 43.30126 -8.38051 337 ft 3 kts 355°
2026-04-16 12:30 43.30107 -8.38053 337 ft 3 kts 22°
2026-04-16 12:30 43.30100 -8.38058 336 ft 0 kts 28°
2026-04-16 12:32 43.30100 -8.38057 336 ft 1 kts 28°
2026-04-16 12:32 43.30148 -8.38021 337 ft 14 kts 30°
2026-04-16 12:33 43.30229 -8.37955 338 ft 16 kts 31°
2026-04-16 12:33 43.30271 -8.37860 341 ft 13 kts 117°
2026-04-16 12:33 43.30227 -8.37757 339 ft 11 kts 109°
2026-04-16 12:33 43.30261 -8.37670 340 ft 14 kts 28°
2026-04-16 12:34 43.30371 -8.37592 338 ft 21 kts 32°
2026-04-16 12:34 43.30519 -8.37466 339 ft 28 kts 31°
2026-04-16 12:34 43.30703 -8.37318 349 ft 31 kts 29°
2026-04-16 12:34 43.30856 -8.37196 351 ft 21 kts 27°
2026-04-16 12:35 43.30980 -8.37153 337 ft 17 kts 71°
2026-04-16 12:35 43.30929 -8.37135 353 ft 8 kts 211°
2026-04-16 12:35 43.30926 -8.37137 345 ft 0 kts 209°
2026-04-16 12:36 43.30913 -8.37147 346 ft 15 kts 209°
2026-04-16 12:37 43.30572 -8.37412 344 ft 95 kts 210°
2026-04-16 12:37 43.29810 -8.38043 346 ft 155 kts 211°
2026-04-16 12:37 43.28812 -8.38883 814 ft 162 kts 211°
2026-04-16 12:37 43.27834 -8.39577 1639 ft 163 kts 200°
2026-04-16 12:38 43.26699 -8.39813 2113 ft 172 kts 176°
2026-04-16 12:38 43.25556 -8.39207 2473 ft 188 kts 145°
2026-04-16 12:38 43.24523 -8.37981 2809 ft 206 kts 136°
2026-04-16 12:38 43.23735 -8.36290 3272 ft 216 kts 112°
2026-04-16 12:39 43.23552 -8.34232 3842 ft 222 kts 85°
2026-04-16 12:39 43.23752 -8.32124 4547 ft 224 kts 84°
2026-04-16 12:39 43.23966 -8.29986 5252 ft 226 kts 85°
2026-04-16 12:39 43.24185 -8.27823 5906 ft 231 kts 84°
2026-04-16 12:40 43.24407 -8.25616 6549 ft 236 kts 84°
2026-04-16 12:40 43.24630 -8.23393 7136 ft 241 kts 84°
2026-04-16 12:40 43.24849 -8.21091 7737 ft 245 kts 89°
2026-04-16 12:40 43.24651 -8.18779 8342 ft 244 kts 113°
2026-04-16 12:41 43.23843 -8.16727 8797 ft 252 kts 135°
2026-04-16 12:41 43.22461 -8.15150 9060 ft 269 kts 152°
2026-04-16 12:41 43.20819 -8.13711 9419 ft 287 kts 152°
2026-04-16 12:41 43.19112 -8.12208 9988 ft 295 kts 152°
2026-04-16 12:42 43.17381 -8.10671 10455 ft 308 kts 152°
2026-04-16 12:42 43.15510 -8.09004 10622 ft 332 kts 151°
2026-04-16 12:42 43.13502 -8.07211 10725 ft 355 kts 150°
2026-04-16 12:42 43.11371 -8.05303 10859 ft 376 kts 150°
2026-04-16 12:43 43.09121 -8.03280 11011 ft 394 kts 150°
2026-04-16 12:43 43.06828 -8.01217 11459 ft 402 kts 150°
2026-04-16 12:43 43.04477 -7.99102 12031 ft 405 kts 150°
2026-04-16 12:43 43.02109 -7.96975 12587 ft 409 kts 150°
2026-04-16 12:44 42.99713 -7.94834 13141 ft 412 kts 150°
2026-04-16 12:44 42.97297 -7.92686 13692 ft 415 kts 151°
2026-04-16 12:44 42.94862 -7.90524 14201 ft 419 kts 150°
2026-04-16 12:44 42.92404 -7.88345 14707 ft 421 kts 151°
2026-04-16 12:45 42.89941 -7.86164 15195 ft 423 kts 151°
2026-04-16 12:45 42.87490 -7.83992 15679 ft 425 kts 151°
2026-04-16 12:45 42.85001 -7.81788 16156 ft 428 kts 151°
2026-04-16 12:45 42.82500 -7.79571 16633 ft 430 kts 151°
2026-04-16 12:46 42.79973 -7.77334 17112 ft 432 kts 151°
2026-04-16 12:46 42.77442 -7.75097 17557 ft 434 kts 151°
2026-04-16 12:46 42.74891 -7.72844 17985 ft 436 kts 150°
2026-04-16 12:46 42.72371 -7.70620 18438 ft 439 kts 150°
2026-04-16 12:47 42.69800 -7.68352 18820 ft 441 kts 151°
2026-04-16 12:47 42.67214 -7.66077 19203 ft 443 kts 151°
2026-04-16 12:47 42.64604 -7.63783 19564 ft 446 kts 151°
2026-04-16 12:47 42.61993 -7.61490 19906 ft 448 kts 151°
2026-04-16 12:48 42.59366 -7.59185 20234 ft 450 kts 150°
2026-04-16 12:48 42.56755 -7.56894 20568 ft 453 kts 150°
2026-04-16 12:48 42.54086 -7.54551 20909 ft 455 kts 150°
2026-04-16 12:48 42.51449 -7.52242 21234 ft 457 kts 150°
2026-04-16 12:49 42.48767 -7.49903 21552 ft 459 kts 152°
2026-04-16 12:49 42.45930 -7.47969 21861 ft 454 kts 164°
2026-04-16 12:49 42.42877 -7.46957 22153 ft 450 kts 176°
2026-04-16 12:49 42.39758 -7.46867 22461 ft 447 kts 188°
2026-04-16 12:50 42.36719 -7.47626 22721 ft 444 kts 199°
2026-04-16 12:50 42.33862 -7.49183 22972 ft 442 kts 210°
2026-04-16 12:50 42.31302 -7.51485 23243 ft 441 kts 221°
2026-04-16 12:50 42.28957 -7.54185 23519 ft 443 kts 222°
2026-04-16 12:51 42.26610 -7.56895 23792 ft 445 kts 222°
2026-04-16 12:51 42.25135 -7.58593 23943 ft 446 kts 222°
2026-04-16 13:03 42.23313 -7.60683 23783 ft 455 kts 221°
2026-04-16 13:04 42.20904 -7.63438 24212 ft 450 kts 222°
2026-04-16 13:04 42.18513 -7.66170 24599 ft 448 kts 222°
2026-04-16 13:04 42.16134 -7.68892 24870 ft 448 kts 222°
2026-04-16 13:04 42.13749 -7.71625 25087 ft 450 kts 222°
2026-04-16 13:05 42.11388 -7.74327 25354 ft 450 kts 222°
2026-04-16 13:05 42.08998 -7.77057 25675 ft 449 kts 222°
2026-04-16 13:05 42.06612 -7.79769 26005 ft 448 kts 222°
2026-04-16 13:05 42.04224 -7.82475 26332 ft 447 kts 222°
2026-04-16 13:06 42.01840 -7.85176 26675 ft 446 kts 222°
2026-04-16 13:06 41.99467 -7.87869 27005 ft 446 kts 222°
2026-04-16 13:06 41.97099 -7.90553 27349 ft 445 kts 222°
2026-04-16 13:06 41.94758 -7.93201 27691 ft 444 kts 222°
2026-04-16 13:07 41.92391 -7.95868 28040 ft 443 kts 222°
2026-04-16 13:07 41.90028 -7.98531 28342 ft 443 kts 222°
2026-04-16 13:07 41.87666 -8.01192 28664 ft 443 kts 222°
2026-04-16 13:07 41.85308 -8.03843 29004 ft 442 kts 222°
2026-04-16 13:08 41.82947 -8.06494 29344 ft 442 kts 222°
2026-04-16 13:08 41.81385 -8.08247 29583 ft 441 kts 222°
2026-04-16 13:08 41.79035 -8.10902 29932 ft 440 kts 222°
2026-04-16 13:08 41.76695 -8.13566 30287 ft 440 kts 223°
2026-04-16 13:09 41.74365 -8.16225 30602 ft 438 kts 223°
2026-04-16 13:09 41.72049 -8.18870 30927 ft 437 kts 223°
2026-04-16 13:09 41.69735 -8.21510 31257 ft 435 kts 222°
2026-04-16 13:09 41.67458 -8.24099 31492 ft 435 kts 223°
2026-04-16 13:10 41.65150 -8.26719 31758 ft 435 kts 223°
2026-04-16 13:10 41.62837 -8.29336 32069 ft 434 kts 223°
2026-04-16 13:10 41.60536 -8.31932 32392 ft 432 kts 223°
2026-04-16 13:10 41.58239 -8.34520 32714 ft 431 kts 222°
2026-04-16 13:11 41.55953 -8.37093 33080 ft 428 kts 222°
2026-04-16 13:11 41.53669 -8.39659 33218 ft 429 kts 222°
2026-04-16 13:11 41.51379 -8.42212 33241 ft 430 kts 222°
2026-04-16 13:12 41.46791 -8.47284 33244 ft 430 kts 222°
2026-04-16 13:12 41.42159 -8.52404 33247 ft 432 kts 222°
2026-04-16 13:13 41.37532 -8.57510 33248 ft 432 kts 221°
2026-04-16 13:13 41.32892 -8.62618 33246 ft 432 kts 221°
2026-04-16 13:14 41.27704 -8.66699 33243 ft 439 kts 202°
2026-04-16 13:14 41.21645 -8.68023 33225 ft 449 kts 182°
2026-04-16 13:15 41.15406 -8.67295 33223 ft 452 kts 179°
2026-04-16 13:15 41.09122 -8.66526 33227 ft 453 kts 179°
2026-04-16 13:16 41.02869 -8.65762 33230 ft 454 kts 179°
2026-04-16 13:16 40.96576 -8.64982 33220 ft 454 kts 178°
2026-04-16 13:17 40.90273 -8.64203 33223 ft 455 kts 178°
2026-04-16 13:17 40.85903 -8.63667 33228 ft 455 kts 178°
2026-04-16 13:18 40.80811 -8.63041 33223 ft 455 kts 178°
2026-04-16 13:18 40.74494 -8.62266 33230 ft 456 kts 178°
2026-04-16 13:19 40.68174 -8.61488 33233 ft 456 kts 178°
2026-04-16 13:19 40.61853 -8.60711 33227 ft 456 kts 178°
2026-04-16 13:20 40.55524 -8.59935 33225 ft 456 kts 178°
2026-04-16 13:20 40.49223 -8.59174 33230 ft 456 kts 178°
2026-04-16 13:21 40.42901 -8.58411 33233 ft 456 kts 178°
2026-04-16 13:21 40.36612 -8.57652 33232 ft 456 kts 178°
2026-04-16 13:22 40.30289 -8.56885 33235 ft 455 kts 178°
2026-04-16 13:22 40.23974 -8.56116 33233 ft 455 kts 178°
2026-04-16 13:23 40.17657 -8.55353 33224 ft 455 kts 178°
2026-04-16 13:23 40.11346 -8.54604 33220 ft 455 kts 178°
2026-04-16 13:24 40.05066 -8.53861 33215 ft 455 kts 178°
2026-04-16 13:24 39.98747 -8.53103 33219 ft 455 kts 178°
2026-04-16 13:25 39.92422 -8.52341 33209 ft 455 kts 177°
2026-04-16 13:25 39.86097 -8.51580 33214 ft 456 kts 177°
2026-04-16 13:26 39.79821 -8.50835 33217 ft 456 kts 177°
2026-04-16 13:26 39.73485 -8.50091 33216 ft 456 kts 177°
2026-04-16 13:27 39.67175 -8.50010 33204 ft 451 kts 191°
2026-04-16 13:27 39.61245 -8.52287 33199 ft 446 kts 206°
2026-04-16 13:28 39.55557 -8.55543 33197 ft 446 kts 205°
2026-04-16 13:28 39.49851 -8.58764 33194 ft 447 kts 205°
2026-04-16 13:29 39.44171 -8.61975 33186 ft 447 kts 205°
2026-04-16 13:29 39.38448 -8.65202 33195 ft 448 kts 205°
2026-04-16 13:30 39.32754 -8.68408 33193 ft 448 kts 205°
2026-04-16 13:30 39.27025 -8.71633 33197 ft 448 kts 205°
2026-04-16 13:31 39.21331 -8.74827 33193 ft 448 kts 205°
2026-04-16 13:31 39.15587 -8.78049 33193 ft 448 kts 205°
2026-04-16 13:32 39.09895 -8.81239 33195 ft 448 kts 205°
2026-04-16 13:32 39.04165 -8.84436 33189 ft 448 kts 205°
2026-04-16 13:33 38.98434 -8.87624 33177 ft 448 kts 204°
2026-04-16 13:33 38.92693 -8.90817 33175 ft 449 kts 204°
2026-04-16 13:34 38.86991 -8.93991 33176 ft 449 kts 204°
2026-04-16 13:34 38.81247 -8.97177 33178 ft 449 kts 204°
2026-04-16 13:35 38.75491 -9.00356 33173 ft 449 kts 204°
2026-04-16 13:35 38.69735 -9.03537 33176 ft 450 kts 204°
2026-04-16 13:36 38.64017 -9.06695 33190 ft 450 kts 204°
2026-04-16 13:36 38.58256 -9.09873 33207 ft 450 kts 204°
2026-04-16 13:37 38.52532 -9.13017 33206 ft 449 kts 204°
2026-04-16 13:37 38.46774 -9.16170 33205 ft 449 kts 204°
2026-04-16 13:38 38.41501 -9.20376 33206 ft 448 kts 221°
2026-04-16 13:38 38.37326 -9.26223 33203 ft 448 kts 230°
2026-04-16 13:39 38.33288 -9.32290 33202 ft 448 kts 229°
2026-04-16 13:39 38.29262 -9.38305 33201 ft 448 kts 229°
2026-04-16 13:40 38.25207 -9.44343 33200 ft 448 kts 229°
2026-04-16 13:40 38.21158 -9.50378 33209 ft 448 kts 229°
2026-04-16 13:41 38.17112 -9.56416 33215 ft 447 kts 229°
2026-04-16 13:41 38.13071 -9.62425 33217 ft 447 kts 229°
2026-04-16 13:42 38.09037 -9.68397 33217 ft 447 kts 229°
2026-04-16 13:42 38.04998 -9.74371 33220 ft 447 kts 229°
2026-04-16 13:43 38.00945 -9.80366 33215 ft 447 kts 229°
2026-04-16 13:43 37.96901 -9.86324 33228 ft 447 kts 229°
2026-04-16 13:44 37.92833 -9.92281 33219 ft 447 kts 228°
2026-04-16 13:44 37.88764 -9.98236 33223 ft 447 kts 228°
2026-04-16 13:45 37.84693 -10.04183 33217 ft 447 kts 228°
2026-04-16 13:45 37.80647 -10.10095 33220 ft 447 kts 228°
2026-04-16 13:46 37.76572 -10.16034 33224 ft 446 kts 228°
2026-04-16 13:46 37.72497 -10.21971 33218 ft 447 kts 228°
2026-04-16 13:47 37.68408 -10.27901 33220 ft 447 kts 228°
2026-04-16 13:47 37.64342 -10.33790 33218 ft 447 kts 228°
2026-04-16 13:48 37.60240 -10.39713 33220 ft 447 kts 228°
2026-04-16 13:48 37.56165 -10.45590 33219 ft 447 kts 228°
2026-04-16 13:49 37.52065 -10.51507 33222 ft 447 kts 228°
2026-04-16 13:49 37.48653 -10.56413 33221 ft 447 kts 228°
2026-04-16 13:50 37.44548 -10.62303 33214 ft 447 kts 227°
2026-04-16 13:50 37.40431 -10.68200 33213 ft 448 kts 227°
2026-04-16 13:51 37.36315 -10.74094 33216 ft 448 kts 228°
2026-04-16 13:51 37.32224 -10.79957 33217 ft 448 kts 227°
2026-04-16 13:52 37.28093 -10.85845 33217 ft 448 kts 227°
2026-04-16 13:52 37.23952 -10.91727 33218 ft 448 kts 227°
2026-04-16 13:53 37.19841 -10.97560 33219 ft 448 kts 227°
2026-04-16 13:53 37.15699 -11.03446 33218 ft 449 kts 227°
2026-04-16 13:54 37.11581 -11.09274 33215 ft 449 kts 227°
2026-04-16 13:54 37.07424 -11.15148 33218 ft 449 kts 227°
2026-04-16 13:55 37.03264 -11.21010 33218 ft 449 kts 227°
2026-04-16 13:55 36.99133 -11.26823 33219 ft 449 kts 227°
2026-04-16 13:56 36.94975 -11.32673 33222 ft 449 kts 227°
2026-04-16 13:56 36.90813 -11.38518 33218 ft 450 kts 227°
2026-04-16 13:57 36.86649 -11.44362 33213 ft 450 kts 227°
2026-04-16 13:57 36.82477 -11.50198 33214 ft 450 kts 227°
2026-04-16 13:58 36.76227 -11.58890 33216 ft 450 kts 227°
2026-04-16 13:58 36.72037 -11.64719 33216 ft 450 kts 226°
2026-04-16 13:59 36.67847 -11.70546 33216 ft 450 kts 227°
2026-04-16 13:59 36.63682 -11.76324 33210 ft 450 kts 227°
2026-04-16 14:00 36.59479 -11.82145 33213 ft 451 kts 226°
2026-04-16 14:00 36.55284 -11.87954 33215 ft 451 kts 226°
2026-04-16 14:01 36.51076 -11.93749 33217 ft 451 kts 227°
2026-04-16 14:01 36.46888 -11.99514 33217 ft 451 kts 226°
2026-04-16 14:02 36.42680 -12.05308 33222 ft 451 kts 226°
2026-04-16 14:02 36.38470 -12.11094 33221 ft 451 kts 227°
2026-04-16 14:03 36.34258 -12.16873 33216 ft 451 kts 226°
2026-04-16 14:03 36.30054 -12.22605 33215 ft 452 kts 226°
2026-04-16 14:04 36.25813 -12.28378 33215 ft 452 kts 226°
2026-04-16 14:04 36.21597 -12.34118 33217 ft 452 kts 226°
2026-04-16 14:05 36.17362 -12.39899 33217 ft 452 kts 226°
2026-04-16 14:05 36.13124 -12.45657 33219 ft 452 kts 226°
2026-04-16 14:06 36.08877 -12.51411 33222 ft 452 kts 226°
2026-04-16 14:06 36.04628 -12.57165 33219 ft 453 kts 227°
2026-04-16 14:07 36.00376 -12.62926 33220 ft 453 kts 226°
2026-04-16 14:07 35.96137 -12.68637 33221 ft 453 kts 226°
2026-04-16 14:08 35.91872 -12.74380 33218 ft 454 kts 226°
2026-04-16 14:08 35.87604 -12.80119 33219 ft 454 kts 226°
2026-04-16 14:09 35.83328 -12.85856 33220 ft 454 kts 226°
2026-04-16 14:09 35.79060 -12.91564 33217 ft 454 kts 227°
2026-04-16 14:10 35.74766 -12.97297 33211 ft 455 kts 226°
2026-04-16 14:10 35.70495 -13.03001 33207 ft 456 kts 227°
2026-04-16 14:11 35.66192 -13.08748 33217 ft 456 kts 226°
2026-04-16 14:11 35.61906 -13.14460 33215 ft 456 kts 227°
2026-04-16 14:12 35.57590 -13.20192 33212 ft 456 kts 226°
2026-04-16 14:12 35.53256 -13.25939 33217 ft 457 kts 226°
2026-04-16 14:13 35.48962 -13.31630 33203 ft 457 kts 227°
2026-04-16 14:13 35.44613 -13.37368 33204 ft 458 kts 227°
2026-04-16 14:14 35.40265 -13.43106 33211 ft 459 kts 227°
2026-04-16 14:14 35.35908 -13.48839 33213 ft 459 kts 226°
2026-04-16 14:15 35.31569 -13.54531 33219 ft 459 kts 227°
2026-04-16 14:15 35.27208 -13.60255 33219 ft 459 kts 227°
2026-04-16 14:16 35.25028 -13.63121 33444 ft 459 kts 227°
2026-04-16 14:16 35.22850 -13.65979 33732 ft 459 kts 227°
2026-04-16 14:16 35.20675 -13.68832 34031 ft 458 kts 228°
2026-04-16 14:16 35.18500 -13.71686 34303 ft 457 kts 228°
2026-04-16 14:17 35.16323 -13.74530 34528 ft 457 kts 228°
2026-04-16 14:17 35.14152 -13.77361 34808 ft 456 kts 227°
2026-04-16 14:17 35.12000 -13.80164 35053 ft 455 kts 227°
2026-04-16 14:17 35.09836 -13.82983 35327 ft 454 kts 228°
2026-04-16 14:18 35.07680 -13.85788 35607 ft 452 kts 227°